{"data":{"norad_id":55268,"epoch":"2026-05-22T12:49:59.246400Z","epoch_age_seconds":281310,"freshness":"STALE","line1":"1 55268U 23009A   26142.53471350  .00000069  00000+0  00000+0 0  9996","line2":"2 55268  55.1207 149.5238 0008482 318.2622  45.1799  2.00573116 24732","mean_motion":2.00573116,"eccentricity":0.0008482,"inclination_deg":55.1207,"raan_deg":149.5238,"arg_perigee_deg":318.2622,"mean_anomaly_deg":45.1799,"bstar":0,"rev_number":2473,"period_min":717.94267782129,"perigee_km":20158.843302388,"apogee_km":20203.89885189,"semimajor_km":26559.508077139,"source":"CELESTRAK","updated_at":"2026-05-25T13:38:23.768522Z"}}